Location: Habighorst
(52.7089°N, 10.2278°E)
Time: 04:28:59
(UTC+00:00)

Cosmos 1709 Rocket - Visible Passes

Search period start: 19 April 2026 00:00
Search period end: 29 April 2026 00:00
Orbit: 946 x 1001 km, 82.9° (Epoch: 18 April)

Date Brightness Start Highest point End Pass type
(mag) Time Alt. Az. Time Alt. Az. Time Alt. Az.
19 Apr 7.0 01:36:06 10° NNE 01:38:43 13° NE 01:41:19 10° ENE visible
19 Apr 4.9 03:19:39 10° N 03:25:39 54° ENE 03:31:37 10° SSE visible
20 Apr 6.7 01:59:58 10° NNE 02:04:18 20° ENE 02:08:36 10° ESE visible
20 Apr 7.1 19:09:32 10° W 19:13:11 16° NW 19:16:50 10° NNW visible
21 Apr 6.0 02:24:22 10° N 02:29:42 30° ENE 02:34:59 10° SE visible
21 Apr 7.5 19:38:20 10° NW 19:38:52 10° NW 19:39:24 10° NW visible
22 Apr 7.1 01:06:09 10° NNE 01:07:47 11° NE 01:09:25 10° ENE visible
22 Apr 5.1 02:49:01 10° N 02:54:54 46° ENE 03:00:46 10° SE visible
23 Apr 6.7 01:29:31 10° NNE 01:33:25 17° NE 01:37:19 10° E visible
23 Apr 4.3 03:13:49 10° N 03:19:56 74° ENE 03:26:04 10° SSE visible
24 Apr 6.2 01:53:49 10° N 01:58:52 26° ENE 02:03:55 10° ESE visible
25 Apr 5.4 02:18:24 10° N 02:24:08 40° ENE 02:29:52 10° SE visible
26 Apr 6.7 00:59:08 10° NNE 01:02:31 15° NE 01:05:54 10° E visible
26 Apr 4.5 02:43:09 10° N 02:49:14 64° ENE 02:55:18 10° SSE visible
27 Apr 6.3 01:23:16 10° N 01:28:02 23° ENE 01:32:47 10° ESE visible
27 Apr 4.0 03:08:02 10° NNW 03:14:10 81° W 03:20:18 10° S visible
28 Apr 5.6 01:47:47 10° N 01:53:21 35° ENE 01:58:55 10° SE visible
